Location: Blandford
(50.8667°N, 2.1667°W)
Time: 17:39:29
(UTC+00:00)

USA 234 - Pass Details

Date: 09 April 2020
Orbit: 1102 x 1106 km, 123.0° (Epoch: 14 May)

Event Time Altitude Azimuth Distance (km) Brightness Sun altitude
Rises 23:18:28 0° 62° (ENE) 3,925 6.3 -30.1°
Reaches altitude 10° 23:20:57 10° 60° (ENE) 2,966 5.7 -30.1°
Maximum altitude 23:27:27 70° 339° (NNW) 1,170 3.4 -30.4°
Drops below altitude 10° 23:33:57 10° 258° (WSW) 2,962 5.5 -30.6°
Sets 23:36:26 0° 256° (WSW) 3,919 6.1 -30.6°
